User: anonymous   Login
Location: Unspecified
(0.0000°N, 0.0000°E)
Time: 02:41:31
(UTC+02:00)
Language:

DELTA 2 R/B (1) - Orbit

View from above orbital plane
View from above orbital plane
View from above satellite
View from above satellite

Ground track
Ground track

The orbit data is extracted from the following two-line orbital elements,

1 27665U 03005C   16206.85579907  .00000038  00000-0  48795-4 0  9997
2 27665  39.5770 336.9356 0010239 300.3331 196.9963 14.28413127704111
Epoch (UTC): 24 July 2016 20:32:21
Eccentricity: 0.0010239
inclination: 39.5770°
perigee height: 789 km
apogee height: 804 km
right ascension of ascending node: 336.9356°
argument of perigee: 300.3331°
revolutions per day: 14.28413127
mean anomaly at epoch: 196.9963°
orbit number at epoch: 70411

The dashed part of the orbit path shows where the satellite is in the earth's shadow,  

DLR